EN

Hourly Weather Lafayette

Today, 24 July, Saturday

Time Temperature Precipitation Wind Pressure Humidity
00:00 +15°C° 0 mm 2 mps 747 mmHg 72%
01:00 +15°C° 0 mm 2 mps 747 mmHg 74%
02:00 +14°C° 0 mm 2 mps 747 mmHg 75%
03:00 +14°C° 0 mm 2 mps 747 mmHg 76%
04:00 +14°C° 0 mm 2 mps 747 mmHg 77%
05:00 +15°C° 0 mm 1 mps 747 mmHg 72%
06:00 +16°C° 0 mm 1 mps 747 mmHg 66%
07:00 +18°C° 0 mm 1 mps 748 mmHg 60%
08:00 +20°C° 0 mm 2 mps 748 mmHg 52%
09:00 +24°C° 0 mm 2 mps 748 mmHg 44%
10:00 +26°C° 0 mm 2 mps 748 mmHg 36%
11:00 +27°C° 0 mm 3 mps 747 mmHg 34%
12:00 +29°C° 0 mm 3 mps 747 mmHg 32%
13:00 +30°C° 0 mm 4 mps 746 mmHg 29%
14:00 +29°C° 0 mm 4 mps 746 mmHg 30%
15:00 +29°C° 0 mm 5 mps 746 mmHg 31%
16:00 +28°C° 0 mm 5 mps 745 mmHg 32%
17:00 +26°C° 0 mm 4 mps 745 mmHg 39%
18:00 +22°C° 0 mm 4 mps 745 mmHg 47%
19:00 +20°C° 0 mm 3 mps 745 mmHg 54%
20:00 +19°C° 0 mm 3 mps 745 mmHg 59%
21:00 +17°C° 0 mm 3 mps 746 mmHg 64%
22:00 +16°C° 0 mm 3 mps 746 mmHg 69%
23:00 +16°C° 0 mm 3 mps 746 mmHg 71%

Tomorrow, 25 July, Sunday

Time Temperature Precipitation Wind Pressure Humidity
00:00 +16°C° 0 mm 2 mps 746 mmHg 73%
01:00 +15°C° 0 mm 2 mps 745 mmHg 75%
02:00 +15°C° 0 mm 2 mps 746 mmHg 76%
03:00 +15°C° 0 mm 2 mps 746 mmHg 77%
04:00 +14°C° 0 mm 2 mps 746 mmHg 78%
05:00 +15°C° 0 mm 2 mps 746 mmHg 74%
06:00 +16°C° 0 mm 2 mps 746 mmHg 70%
07:00 +17°C° 0 mm 2 mps 746 mmHg 66%
08:00 +19°C° 0 mm 2 mps 746 mmHg 58%
09:00 +21°C° 0 mm 3 mps 746 mmHg 50%
10:00 +24°C° 0 mm 3 mps 746 mmHg 42%
11:00 +25°C° 0 mm 4 mps 746 mmHg 39%
12:00 +27°C° 0 mm 4 mps 746 mmHg 36%
13:00 +28°C° 0 mm 5 mps 745 mmHg 34%
14:00 +27°C° 0 mm 5 mps 745 mmHg 35%
15:00 +27°C° 0 mm 5 mps 745 mmHg 37%
16:00 +26°C° 0 mm 5 mps 745 mmHg 39%
17:00 +23°C° 0 mm 4 mps 745 mmHg 45%
18:00 +21°C° 0 mm 4 mps 745 mmHg 51%
19:00 +19°C° 0 mm 4 mps 745 mmHg 57%
20:00 +18°C° 0 mm 3 mps 745 mmHg 62%
21:00 +17°C° 0 mm 3 mps 745 mmHg 68%
22:00 +16°C° 0 mm 3 mps 745 mmHg 73%
23:00 +16°C° 0 mm 2 mps 745 mmHg 75%

Day after tomorrow, 26 July, Monday

Time Temperature Precipitation Wind Pressure Humidity
00:00 +16°C° 0 mm 2 mps 745 mmHg 76%
01:00 +15°C° 0 mm 2 mps 745 mmHg 78%
02:00 +15°C° 0 mm 2 mps 744 mmHg 79%
03:00 +15°C° 0 mm 2 mps 744 mmHg 80%
04:00 +15°C° 0 mm 2 mps 744 mmHg 81%
05:00 +16°C° 0 mm 2 mps 745 mmHg 76%
06:00 +17°C° 0 mm 2 mps 745 mmHg 71%
07:00 +19°C° 0 mm 1 mps 745 mmHg 66%
08:00 +20°C° 0 mm 2 mps 745 mmHg 56%
09:00 +23°C° 0 mm 2 mps 746 mmHg 47%
10:00 +26°C° 0 mm 2 mps 746 mmHg 37%
11:00 +27°C° 0 mm 3 mps 746 mmHg 35%
12:00 +28°C° 0 mm 4 mps 745 mmHg 34%
13:00 +29°C° 0 mm 4 mps 745 mmHg 32%
14:00 +28°C° 0 mm 4 mps 745 mmHg 34%
15:00 +27°C° 0 mm 4 mps 745 mmHg 36%
16:00 +27°C° 0 mm 4 mps 745 mmHg 39%
17:00 +25°C° 0 mm 4 mps 745 mmHg 44%
18:00 +22°C° 0 mm 3 mps 746 mmHg 50%
19:00 +21°C° 0 mm 3 mps 746 mmHg 55%
20:00 +20°C° 0 mm 3 mps 746 mmHg 56%
21:00 +20°C° 0 mm 2 mps 746 mmHg 57%
22:00 +20°C° 0 mm 2 mps 746 mmHg 58%
23:00 +20°C° 0 mm 2 mps 746 mmHg 57%

27 July, Tuesday

Time Temperature Precipitation Wind Pressure Humidity
00:00 +21°C° 0 mm 1 mps 746 mmHg 56%
01:00 +21°C° 0 mm 1 mps 746 mmHg 55%
02:00 +21°C° 0 mm 1 mps 746 mmHg 54%
03:00 +20°C° 0 mm 1 mps 746 mmHg 54%
04:00 +20°C° 0 mm 1 mps 746 mmHg 54%
05:00 +21°C° 0 mm 1 mps 746 mmHg 50%
06:00 +22°C° 0 mm 1 mps 747 mmHg 46%
07:00 +23°C° 0 mm 1 mps 747 mmHg 43%
08:00 +26°C° 0 mm 1 mps 747 mmHg 37%
09:00 +28°C° 0 mm 2 mps 747 mmHg 31%
10:00 +30°C° 0 mm 2 mps 747 mmHg 26%
11:00 +31°C° 0 mm 2 mps 747 mmHg 24%
12:00 +34°C° 0 mm 3 mps 747 mmHg 23%
13:00 +35°C° 0 mm 4 mps 747 mmHg 22%
14:00 +34°C° 0 mm 4 mps 747 mmHg 23%
15:00 +34°C° 0 mm 4 mps 746 mmHg 24%
16:00 +33°C° 0 mm 4 mps 746 mmHg 24%
17:00 +30°C° 0 mm 3 mps 746 mmHg 28%
18:00 +28°C° 0 mm 3 mps 746 mmHg 31%
19:00 +26°C° 0 mm 2 mps 747 mmHg 34%
20:00 +25°C° 0 mm 2 mps 747 mmHg 38%
21:00 +23°C° 0 mm 2 mps 747 mmHg 41%
22:00 +21°C° 0 mm 2 mps 747 mmHg 45%
23:00 +21°C° 0 mm 2 mps 747 mmHg 47%

28 July, Wednesday

Time Temperature Precipitation Wind Pressure Humidity
00:00 +20°C° 0 mm 2 mps 747 mmHg 50%
01:00 +21°C° 0 mm 1 mps 747 mmHg 52%
02:00 +20°C° 0 mm 1 mps 747 mmHg 54%
03:00 +20°C° 0 mm 1 mps 747 mmHg 56%
04:00 +20°C° 0 mm 1 mps 747 mmHg 57%
05:00 +21°C° 0 mm 1 mps 747 mmHg 55%
06:00 +22°C° 0 mm 1 mps 748 mmHg 52%
07:00 +23°C° 0 mm 1 mps 748 mmHg 49%
08:00 +26°C° 0 mm 1 mps 748 mmHg 43%
09:00 +28°C° 0 mm 2 mps 748 mmHg 37%
10:00 +31°C° 0 mm 2 mps 748 mmHg 32%
11:00 +32°C° 0 mm 2 mps 748 mmHg 30%
12:00 +34°C° 0 mm 3 mps 747 mmHg 29%
13:00 +36°C° 0 mm 4 mps 747 mmHg 27%
14:00 +35°C° 0 mm 4 mps 747 mmHg 29%
15:00 +34°C° 0 mm 4 mps 746 mmHg 31%
16:00 +33°C° 0 mm 5 mps 746 mmHg 33%
17:00 +30°C° 0 mm 4 mps 746 mmHg 37%
18:00 +28°C° 0 mm 4 mps 746 mmHg 41%
19:00 +26°C° 0 mm 3 mps 746 mmHg 46%
20:00 +25°C° 0 mm 3 mps 746 mmHg 49%
21:00 +22°C° 0 mm 3 mps 746 mmHg 53%
22:00 +21°C° 0 mm 2 mps 746 mmHg 56%
23:00 +21°C° 0 mm 2 mps 746 mmHg 59%

29 July, Thursday

Time Temperature Precipitation Wind Pressure Humidity
00:00 +20°C° 0 mm 2 mps 746 mmHg 61%
01:00 +20°C° 0 mm 2 mps 746 mmHg 64%
02:00 +19°C° 0 mm 2 mps 746 mmHg 66%
03:00 +19°C° 0 mm 2 mps 746 mmHg 68%
04:00 +18°C° 0 mm 2 mps 746 mmHg 70%
05:00 +19°C° 0 mm 2 mps 746 mmHg 67%
06:00 +20°C° 0 mm 2 mps 746 mmHg 63%
07:00 +22°C° 0 mm 1 mps 746 mmHg 60%
08:00 +25°C° 0 mm 2 mps 746 mmHg 52%
09:00 +27°C° 0 mm 2 mps 746 mmHg 45%
10:00 +29°C° 0 mm 2 mps 746 mmHg 38%
11:00 +31°C° 0 mm 3 mps 746 mmHg 36%
12:00 +33°C° 0 mm 3 mps 745 mmHg 33%
13:00 +34°C° 0 mm 4 mps 745 mmHg 30%
14:00 +33°C° 0 mm 4 mps 745 mmHg 32%
15:00 +33°C° 0 mm 5 mps 745 mmHg 33%
16:00 +32°C° 0 mm 5 mps 744 mmHg 34%
17:00 +29°C° 0 mm 4 mps 744 mmHg 39%
18:00 +26°C° 0 mm 4 mps 744 mmHg 44%
19:00 +23°C° 0 mm 4 mps 745 mmHg 49%
20:00 +22°C° 0 mm 3 mps 745 mmHg 53%
21:00 +21°C° 0 mm 3 mps 745 mmHg 57%
22:00 +20°C° 0 mm 2 mps 745 mmHg 61%
23:00 +19°C° 0 mm 2 mps 745 mmHg 63%
Show more